www.pogodaiklimat.ru

Погода и климат >> Архив погоды >> Россия >> Чувашия >> Батырево


ПОГОДА в Батырево

  • Прогноз погоды в Батырево
  • Монитор погоды в Батырево

АРХИВ ПОГОДЫ в Батырево

Время (UTC), дата Ветер
(напр.,м/с)
 
Видим.   Явления Облачность Т
(С)
Тd
(С)
f
(%)
Тe
(С)
Тes
(С)
Комфортность P
(гПа)
Po
(гПа)
Тmin
(С)
Tmax
(С)
R
(мм)
R24
(мм)
S
(см)
06 13.09 ЮЗ 1-4
{4}
4000 м 8/8 600 м
[Sc]
+18.7 +9.3 54 +20 +21 1024.1 1009.5
09 13.09 ЮЗ 2-6
{6}
4000 м 8/8
[Sc]
+24.1 +7.6 35 +24 +26 комфорт 1022.6 1008.3
12 13.09 З 2-6
{9}
4000 м 6/6 600 м
[Sc]
+26.4 +5.8 27 +26 +27 жарко 1020.6 1006.5
15 13.09 Ю 3-4
{8}
10 км 5/5 600 м
[Sc]
+22.1 +5.6 34 +23 +23 комфорт 1019.6 1005.2 +26.5
18 13.09 Ю 4-6
{7}
н/о н/о +19.9 +6.4 41 +21 +21 комфорт 1019.2 1004.7
21 13.09 Ю 2-6
{7}
4000 м 3/3 600 м
[Sc]
+17.9 +5.6 44 +18 +18 1017.8 1003.3
00 14.09 Ю 4-7
{8}
4000 м 3/0
[Ci sp]
+17.6 +4.4 42 +17 +17 1016.2 1001.7
03 14.09 Ю 4-6
{7}
20 км 6/3 600 м
[Sc Ac trans Ci sp]
+16.5 +4.5 45 +16 +16 1014.7 1000.1 +16.1
06 14.09 Ю 6-11
{11}
4000 м 6/3 600 м
[Cu Sc Ac lent]
+21.4 +3.7 31 +22 +22 комфорт 1012.7 998.4
09 14.09 Ю 7-11
{15}
4000 м 8/3 600 м
[Cu Sc Ac lent]
+25.7 +3.0 23 +25 +25 комфорт 1010.4 996.4
12 14.09 ЮЗ 3-7
{13}
20 км 9/9 600 м
[Cu Sc]
+24.7 +3.8 26 +24 +24 комфорт 1009.8 995.7
15 14.09 З 1-5
{9}
10 км в посл. час ливневой дождь 10/10 600 м
[Cb calv]
+16.2 +11.7 75 +17 +17 1011.7 997.2 +26.3 0.0
18 14.09 Ю 1-3
{5}
4000 м слаб. ливневой дождь 10/10 600 м
[Cb calv]
+13.3 +10.2 81 +13 +13 1012.4 997.7
21 14.09 ЮЗ 1-3
{5}
4000 м {ливн. осадки} 10/10 600 м
[Sc]
+12.1 +10.6 91 +12 +12 1012.8 998.0
00 15.09 штиль 0
{3}
4000 м {ливн. осадки} 10/10 600 м
[Sc]
+10.6 +9.3 92 +10 +10 1012.5 997.7
03 15.09 ЮЗ 1-3
{3}
10 км 9/9 600 м
[Cb calv]
+9.6 +8.2 91 +9 +9 1012.8 998.0 +9.6 0.2
06 15.09 З 1-4
{4}
20 км 6/6 600 м
[Cu Sc]
+13.7 +8.2 69 +14 +16 1013.1 998.4 +9.6
09 15.09 З 2-5
{6}
20 км 6/6 600 м
[Cu Sc]
+15.3 +4.8 49 +15 +18 1012.8 998.2
12 15.09 штиль 0
{6}
20 км 8/8 600 м
[Cu Sc]
+14.5 +3.3 47 +14 +15 1012.0 997.4
15 15.09 ЮЗ 1-3
{9}
10 км 6/3 600 м
[Cu Sc Ac lent]
+11.5 +3.2 57 +12 +12 1011.9 997.1 +17.0
18 15.09 ЮЗ 2-4
{5}
4000 м 3/0
[Ac lent]
+8.4 +3.7 72 +7 +7 1012.0 997.1
21 15.09 ЮЗ 1-2
{4}
4000 м 10/0
[As op]
+7.0 +3.5 78 +6 +6 1010.9 995.9
00 16.09 ЮЗ 1-2
{4}
4000 м 10/10 600 м
[Sc]
+8.4 +4.7 78 +8 +8 1009.7 994.8
03 16.09 Ю 4-6
{7}
10 км 10/10 600 м
[Sc]
+8.4 +4.2 75 +5 +5 1006.7 991.8 +6.9
06 16.09 ЮЗ 5-10
{11}
20 км {ливн. осадки} 10/10 600 м
[Cu Sc]
+10.3 +5.5 72 +7 +7 1003.9 989.2
09 16.09 Ю 5-10
{11}
20 км 10/10 600 м
[Frnb]
+10.3 +6.6 78 +7 +7 1001.8 987.2
12 16.09 Ю 4-8
{10}
20 км {ливн. осадки} 10/10 600 м
[Sc]
+10.3 +7.1 81 +8 +8 1000.2 985.5
15 16.09 ЮЗ 2-6
{9}
10 км {ливн. осадки} 10/10 600 м
[Frnb]
+10.6 +7.7 82 +9 +9 999.3 984.7 +10.7 0.1
18 16.09 ЮЗ 2-5
{7}
4000 м {ливн. осадки} 5/3 600 м
[Sc Ac lent]
+9.9 +7.5 85 +8 +8 999.4 984.7
21 16.09 ЮЗ 1-4
{6}
4000 м 3/0
[Ac lent]
+9.2 +6.5 83 +9 +9 999.3 984.6
00 17.09 ЮЗ 2-5
{6}
4000 м 3/0
[Ci fib]
+8.2 +5.9 85 +6 +6 999.2 984.5
03 17.09 ЮЗ 3-5
{9}
20 км 4/0
[Ac lent Ci fib]
+8.5 +5.9 84 +6 +6 999.1 984.3 +8.1
06 17.09 ЮЗ 4-9
{9}
4000 м 5/3 600 м
[Sc Ac cast]
+12.0 +7.1 72 +10 +12 999.1 984.5
09 17.09 ЮЗ 4-8
{10}
4000 м 8/8 600 м
[Cu Sc]
+15.9 +6.4 53 +15 +16 998.3 983.9
12 17.09 ЮЗ 2-4
{12}
20 км {ливн. осадки} 8/6 600 м
[Cb calv]
+15.2 +8.2 63 +15 +16 998.0 983.6
15 17.09 Ю 3-6
{9}
10 км в посл. час ливневой дождь 8/8 300 м
[Cb calv]
+11.0 +6.6 74 +9 +9 998.3 983.7 +17.0 0.6
18 17.09 З 2-5
{11}
4000 м {ливн. осадки} 6/6 600 м
[Sc]
+9.2 +5.6 78 +8 +8 999.8 985.1
21 17.09 ЮЗ 2-2
{6}
4000 м 5/5 600 м
[Sc]
+6.4 +6.0 97 +4 +4 999.5 984.6
00 18.09 штиль 0
{3}
4000 м 5/5 600 м
[Sc]
+4.3 +2.7 89 +3 +3 1000.1 985.1
03 18.09 ЮЗ 1-3
{4}
20 км 6/3 600 м
[Sc Ac lent]
+6.0 +3.7 85 +5 +5 1000.7 985.8 +4.0
06 18.09 ЮЗ 3-6
{6}
4000 м 6/3 600 м
[Sc Ci sp]
+10.6 +5.6 71 +9 +11 1001.2 986.5
09 18.09 ЮЗ 3-7
{8}
4000 м 9/9 600 м
[Sc Ac lent]
+13.1 +4.7 57 +12 +13 1001.2 986.7
12 18.09 Ю 3-8
{8}
20 км {ливн. осадки} 9/9 300 м
[Cb calv]
+13.0 +4.4 56 +12 +12 1001.0 986.5
15 18.09 Ю 2-3
{8}
10 км 9/9 600 м
[Cb calv]
+9.2 +5.2 76 +8 +8 1000.5 985.8 +14.1 0.0
18 18.09 штиль 0
{4}
4000 м ясно +5.6 +4.1 90 +5 +5 999.3 984.4
21 18.09 В 1-2
{2}
4000 м ясно +5.9 +3.9 87 +5 +5 996.2 981.4
00 19.09 З 1-1
{2}
4000 м 4/4 600 м
[Sc]
+5.9 +14.5 100 +5 +5 993.9 979.1
03 19.09 штиль 0
{3}
10 км 8/4 600 м
[Sc Ac lent]
+5.1 +3.8 91 +4 +4 994.1 979.3 +4.4
06 19.09 СЗ 4-7
{8}
20 км 9/9 600 м
[Sc]
+9.4 +5.1 74 +7 +7 997.4 982.7
09 19.09 СЗ 2-7
{10}
20 км 9/9 600 м
[Cb calv]
+11.9 +4.1 59 +11 +12 1001.1 986.5
12 19.09 ЮЗ 1-3
{9}
10 км {ливн. осадки} 10/10 300 м
[Cb calv]
+9.3 +6.3 82 +9 +9 1004.7 989.9
15 19.09 З 1-3
{6}
10 км {ливн. осадки} 9/9 600 м
[Cb calv]
+8.7 +5.1 78 +8 +8 1007.0 992.2 +14.6 0.5
18 19.09 З 1-3
{5}
4000 м {ливн. осадки} 4/4 600 м
[Cb cap]
+7.4 +5.4 87 +6 +6 1009.0 994.0
21 19.09 З 1-2
{5}
4000 м 9/9 600 м
[Cb cap]
+6.1 +4.4 89 +5 +5 1010.5 995.4
00 20.09 штиль 0
{4}
4000 м 10/9 600 м
[Cb cap]
+6.1 +4.9 92 +5 +5 1011.7 996.7
03 20.09 штиль 0
{3}
10 км 6/4 600 м
[Cb cap Ci fib]
+4.6 +3.5 93 +3 +3 1012.9 997.7 +4.5

 

Местоположение метеостанции Батырево (Чувашия, Россия): широта 55.07 долгота 47.60 высота над уровнем моря 123 м.

В архиве по умолчанию представлена погода в Батырево за последнюю неделю. Архивные данные за месяц целиком и за предыдущие месяцы, начиная с января 2011 года, Вы можете получить, выбрав интересующий диапазон дат из раскрывающегося списка и нажав кнопку "Ввод!".


*Определитесь, кто Вы:
робот инопланетянин человек

Внимание! Время в таблицах - всемирное. Для получения местного времени необходимо прибавить поправку, которая равна 3 ч.

Смотрите также архив погоды в соседних городах и на ближайших метеорологических станциях:

Погода в Дрожжаном (Татарстан, Россия) (39 км)
Погода в Канаше (Чувашия, Россия) (51 км)
Погода в Больших Кайбицах (Татарстан, Россия) (52 км)
Погода в Алатыре (Чувашия, Россия) (71 км)
Погода в Тетюшах (Татарстан, Россия) (76 км)
Погода в Порецком (Чувашия, Россия) (82 км)
Погода в Сурском (Ульяновская область, Россия) (87 км)
Погода в Ульяновске (Ульяновская область, Россия) (98 км)
Погода в Вязовых (Татарстан, Россия) (102 км)
Погода в Камском Устье (Татарстан, Россия) (106 км)

Пояснения к столбцам:

Ветер - указаны скорость ветра в м/с - средняя за 10 мин, порывы в срок и между сроками (в фигурных скобках) и направление, откуда дует ветер: С - северный, СВ - северо-восточный, В - восточный, ЮВ - юго-восточный, Ю - южный, ЮЗ - юго-западный, З - западный, СЗ - северо-западный.
Видимость - горизонтальная дальность видимости в метрах или километрах. При видимости от 1 до 10 км при отсутствии осадков обычно наблюдается дымка, при ухудшении видимости до 1 км и менее - туман. В сухую погоду видимость может ухудшаться дымом, пылью или мглою.
Явления - указаны атмосферные явления, наблюдавшиеся в срок или в последний час перед сроком; фигурными скобками обозначены явления, наблюдавшиеся между сроками (за 1-3 часа до срока); квадратными скобками обозначены град или гололедные отложения с указанием их диаметра в мм.
Облачность - указаны через наклонную черту общая и нижняя облачность в баллах и высота нижней границы облаков в метрах; квадратными скобками обозначены формы облаков: Ci - перистые, Cs - перисто-слоистые, Cc - перисто-кучевые, Ac - высококучевые, As - высокослоистые, Sc - слоисто-кучевые, Ns - слоисто-дождевые, Cu - кучевые, Cb - кучево-дождевые. Подробнее классификацию облаков см. в Атласе облаков (PDF).
T - Температура воздуха - температура, измеренная на высоте 2 м над землей.
Td - Температура точки росы - температура, при понижении до которой содержащийся в воздухе водяной пар достигнет насыщения.
f - Относительная влажность воздуха - влажноcть воздуха, измеренная на высоте 2 м над землей.
Te - Эффективная температура - температура, которую ощущает одетый по сезону человек в тени. Характеристика душности погоды. При расчете учитывается влияние влажности воздуха и скорости ветра на теплоощущения человека.
Tes - Эффективная температура на солнце - температура, которую ощущает человек, с поправкой на солнечный нагрев. Характеристика знойности погоды. Зависит от высоты солнца над горизонтом, облачности и скорости ветра. Ночью, в пасмурную погоду, а также при ветре 12 м/с и более поправка равна нулю.
P - Атмосферное давление - приведенное к уровню моря атмосферное давление.
Po - Атмосферное давление - измеренное на уровне метеостанции атмосферное давление.
Tmin - Минимальная температура - минимум температуры воздуха на высоте 2 м над землей.
Tmax - Максимальная температура - максимум температуры воздуха на высоте 2 м над землей.
R - Количество осадков - Количество выпавших осадков за период времени, мм. При наведении курсора мыши на число - период времени, за который выпало указанное количество осадков.
R24 - Количество осадков - Количество выпавших осадков за 24 часа, мм.
S - Снежный покров - Высота снежного покрова, см. При наведении курсора мыши на число - состояние снежного покрова и степень покрытия местности в баллах.